DO3HUM-5 Weather Reports


Display with metric or nautical units.
time (UTC)temp
F
wind
direction
speed
MPH
gust
MPH
rain 1hr
in
rain 24hr
in
rain mn
in
humidity
%
barometer
mb
20260906084556 66 304 1.0 2.0 0.00 0.00 0.00 58 1034.8
20260906083609 66 346 1.0 4.0 0.00 0.00 0.00 58 1034.7
20260906082556 65 293 1.0 2.0 0.00 0.00 0.00 58 1034.7
20260906081523 65 44 1.0 2.0 0.00 0.00 0.00 59 1034.6
20260906080058 64 315 1.0 2.0 0.00 0.00 0.00 62 1034.8
20260906075109 62 279 1.0 2.0 0.00 0.00 0.00 65 1034.8
20260906074059 62 297 1.0 4.0 0.00 0.00 0.00 65 1034.6
20260906072601 61 281 1.0 2.0 0.00 0.00 0.00 68 1034.6
20260906071522 60 244 2.0 7.0 0.00 0.00 0.00 69 1034.5
20260906070058 59 270 2.0 6.0 0.00 0.00 0.00 69 1034.3
20260906065109 59 337 2.0 4.0 0.00 0.00 0.00 71 1034.2
20260906064058 59 248 1.0 2.0 0.00 0.00 0.00 70 1034.2
20260906063022 58 229 1.0 4.0 0.00 0.00 0.00 73 1034.0
20260906062112 57 240 0.0 2.0 0.00 0.00 0.00 74 1033.9
20260906060523 56 210 0.0 2.0 0.00 0.00 0.00 76 1033.8
20260906055609 56 225 1.0 2.0 0.00 0.00 0.00 77 1033.9
20260906054557 55 225 1.0 2.0 0.00 0.00 0.00 78 1034.0
20260906053611 54 231 1.0 2.0 0.00 0.00 0.00 81 1033.7
20260906052110 52 0.0 2.0 0.00 0.00 0.00 84 1033.4
20260906050557 51 0.0 0.0 0.00 0.00 0.00 85 1033.3
20260906045609 51 225 1.0 2.0 0.00 0.00 0.00 84 1033.4
20260906044110 51 225 0.0 2.0 0.00 0.00 0.00 85 1033.3
20260906042556 51 0.0 0.0 0.00 0.00 0.00 85 1033.2
20260906041532 51 248 1.0 2.0 0.00 0.00 0.00 85 1033.1
20260906040523 51 225 0.0 2.0 0.00 0.00 0.00 86 1032.9
20260906035611 51 0.0 0.0 0.00 0.00 0.00 86 1032.9
20260906034556 51 0.0 0.0 0.00 0.00 0.00 86 1033.1
20260906033557 51 0.0 0.0 0.00 0.00 0.00 86 1033.0
20260906032546 51 0.0 0.0 0.00 0.00 0.00 85 1032.7
20260906031522 52 270 0.0 2.0 0.00 0.00 0.00 85 1032.7
20260906030110 53 0.0 2.0 0.00 0.00 0.00 83 1032.7
20260906024558 53 0.0 0.0 0.00 0.00 0.00 83 1032.5
20260906023522 53 248 0.0 2.0 0.00 0.00 0.00 83 1032.5
20260906022033 53 263 0.0 2.0 0.00 0.00 0.00 83 1032.4
20260906021022 53 0.0 2.0 0.00 0.00 0.00 81 1032.4
20260906020110 53 293 0.0 2.0 0.00 0.00 0.00 82 1032.3
20260906014556 53 0.0 0.0 0.00 0.00 0.00 82 1032.3
20260906013521 54 281 0.0 2.0 0.00 0.00 0.00 81 1032.1
20260906012055 54 0.0 0.0 0.00 0.00 0.00 81 1031.9
20260906011020 54 293 1.0 4.0 0.00 0.00 0.00 79 1031.9
20260906010111 55 0.0 0.0 0.00 0.00 0.00 79 1031.9
20260906004521 55 255 0.0 2.0 0.00 0.00 0.00 77 1031.8
20260906003610 55 253 1.0 2.0 0.00 0.00 0.00 77 1031.8
20260906002558 55 259 1.0 4.0 0.00 0.00 0.00 77 1031.8
20260906001607 55 0.0 0.0 0.00 0.00 0.00 78 1031.7
20260906000556 55 270 1.0 2.0 0.00 0.00 0.00 78 1031.6
20260905235611 55 0.0 2.0 0.00 0.00 0.00 79 1031.5
20260905234110 56 0.0 0.0 0.00 0.00 0.00 78 1031.5
20260905232521 56 0.0 2.0 0.00 0.00 0.00 78 1031.3
20260905231609 56 263 0.0 2.0 0.00 0.00 0.00 77 1031.2
20260905230558 56 293 0.0 2.0 0.00 0.00 0.00 77 1031.2
20260905225611 56 270 0.0 2.0 0.00 0.00 0.00 76 1031.0
20260905224110 57 270 0.0 2.0 0.00 0.00 0.00 75 1030.9
20260905222556 57 293 1.0 2.0 0.00 0.00 0.00 75 1030.7
20260905221521 57 255 0.0 2.0 0.00 0.00 0.00 74 1030.7
20260905220111 56 270 0.0 2.0 0.00 0.00 0.00 76 1030.5
20260905214556 57 0.0 0.0 0.00 0.00 0.00 74 1030.3
20260905213521 57 0.0 0.0 0.00 0.00 0.00 73 1030.2
20260905212109 59 270 0.0 2.0 0.00 0.00 0.00 70 1030.1
20260905210522 58 270 0.0 2.0 0.00 0.00 0.00 72 1030.0
20260905205609 58 293 0.0 2.0 0.00 0.00 0.00 72 1030.1
20260905204055 59 270 1.0 2.0 0.00 0.00 0.00 71 1029.9
20260905203056 59 0.0 2.0 0.00 0.00 0.00 71 1030.0
20260905202020 60 248 0.0 2.0 0.00 0.00 0.00 70 1029.8
20260905201109 61 315 0.0 2.0 0.00 0.00 0.00 69 1029.8
20260905195609 61 278 1.0 4.0 0.00 0.01 0.00 68 1029.4
20260905194033 61 238 0.0 2.0 0.00 0.02 0.00 68 1029.3
20260905193021 61 0.0 2.0 0.00 0.02 0.00 69 1029.2
20260905192111 61 0.0 0.0 0.00 0.02 0.00 68 1029.1
20260905190545 62 0.0 4.0 0.00 0.15 0.00 66 1028.9
20260905185056 63 231 1.0 4.0 0.00 0.17 0.00 65 1028.7
20260905184020 63 303 1.0 4.0 0.00 0.17 0.00 66 1028.6
20260905183110 63 270 0.0 2.0 0.00 0.17 0.00 65 1028.4
20260905182057 64 315 2.0 4.0 0.00 0.17 0.00 64 1028.4
20260905181020 63 283 1.0 6.0 0.00 0.17 0.00 65 1028.3
20260905180109 63 0.0 0.0 0.00 0.17 0.00 65 1028.2
20260905174558 64 0.0 0.0 0.00 0.17 0.00 64 1027.9
20260905173523 65 304 0.0 2.0 0.00 0.17 0.00 62 1027.8
20260905172109 65 293 1.0 2.0 0.00 0.17 0.00 63 1027.6
20260905170546 64 205 1.0 4.0 0.00 0.17 0.00 66 1027.3
20260905165022 63 257 0.0 2.0 0.00 0.17 0.00 71 1027.2
20260905164111 65 293 0.0 2.0 0.00 0.17 0.00 71 1027.2
20260905162520 64 203 1.0 4.0 0.00 0.17 0.00 72 1027.1
20260905161608 63 191 1.0 4.0 0.00 0.17 0.00 72 1027.0
20260905160557 63 0.0 2.0 0.00 0.17 0.00 73 1026.8
20260905155610 64 288 1.0 4.0 0.00 0.17 0.00 71 1026.9
20260905154556 64 302 2.0 7.0 0.00 0.17 0.00 70 1026.6
20260905153523 66 287 1.0 4.0 0.00 0.17 0.00 64 1026.3
20260905152056 68 0.0 2.0 0.00 0.17 0.00 56 1026.3
20260905151020 69 280 3.0 15.0 0.00 0.17 0.00 54 1025.8
20260905150109 69 293 5.0 16.0 0.00 0.17 0.00 53 1025.7
20260905144556 69 236 4.0 8.0 0.00 0.17 0.00 53 1025.5
20260905143521 70 309 5.0 14.0 0.00 0.17 0.00 52 1025.6
20260905142056 72 270 3.0 6.0 0.00 0.17 0.00 51 1025.5
20260905141020 71 306 6.0 18.0 0.00 0.17 0.00 52 1025.4
20260905140114 73 276 2.0 6.0 0.00 0.17 0.00 50 1025.5
20260905134557 72 237 5.0 13.0 0.00 0.17 0.00 51 1025.5
20260905133607 71 264 6.0 14.0 0.00 0.17 0.00 52 1025.3
20260905132558 72 302 6.0 14.0 0.00 0.17 0.00 52 1025.4
20260905131522 69 293 5.0 15.0 0.00 0.17 0.00 55 1025.5
20260905130056 69 23 4.0 11.0 0.00 0.17 0.00 56 1025.5
20260905125045 69 301 5.0 11.0 0.00 0.17 0.00 55 1025.4
20260905124032 70 268 4.0 14.0 0.00 0.17 0.00 54 1025.6
20260905123020 70 282 5.0 15.0 0.00 0.17 0.00 54 1025.5
20260905122111 69 268 6.0 15.0 0.00 0.17 0.00 53 1025.5
20260905120557 69 280 6.0 14.0 0.00 0.17 0.00 52 1025.5
20260905115607 71 338 5.0 14.0 0.00 0.17 0.00 51 1025.4
20260905114558 71 256 6.0 13.0 0.00 0.17 0.00 52 1025.2
20260905113521 71 289 4.0 11.0 0.00 0.17 0.00 52 1025.4
20260905112109 70 291 4.0 15.0 0.00 0.17 0.00 54 1025.4
20260905110557 69 305 4.0 11.0 0.00 0.17 0.00 55 1025.5
20260905105609 69 338 5.0 16.0 0.00 0.17 0.00 56 1025.5
20260905104109 68 273 4.0 9.0 0.00 0.17 0.00 59 1025.5
20260905102533 68 340 7.0 15.0 0.00 0.17 0.00 59 1025.6
20260905101521 67 284 4.0 13.0 0.00 0.17 0.00 61 1025.6
20260905100110 68 245 6.0 14.0 0.00 0.17 0.00 60 1025.6
20260905094556 68 226 4.0 11.0 0.00 0.17 0.00 60 1025.5
20260905093521 66 289 3.0 11.0 0.00 0.17 0.00 63 1025.5
20260905092032 67 285 5.0 16.0 0.00 0.17 0.00 64 1025.4
20260905091021 67 290 3.0 9.0 0.00 0.17 0.00 63 1025.3
20260905090110 67 341 5.0 13.0 0.00 0.17 0.00 64 1025.2